Weather History for Kirksville, MO

Change the Weather History Date:

Wednesday, December 25, 2013

  Actual Average Record
Temperature  
Mean Temperature 27 °F 27 °F  
Max Temperature 33 °F 35 °F 63 °F (1936)
Min Temperature 20 °F 19 °F -15 °F (1983)
Degree Days  
Heating Degree Days 38 38  
Month to date heating degree days 1010 891  
Since 1 July heating degree days 2277 2112  
Cooling Degree Days 0 0  
Month to date cooling degree days 0 0  
Year to date cooling degree days 1028 939  
Moisture  
Dew Point 23 °F    
Average Humidity 83    
Maximum Humidity 96    
Minimum Humidity 69    
Precipitation  
Precipitation 0.00 in 0.04 in 1.46 in (1957)
Month to date precipitation 1.31 1.50  
Year to date precipitation 38.22 39.06  
Sea Level Pressure  
Sea Level Pressure 30.27 in    
Wind  
Wind Speed 8 mph (WSW)    
Max Wind Speed 16 mph    
Max Gust Speed 22 mph    
Visibility 6 miles    
Events      
T = Trace of Precipitation, MM = Missing Value Source: NWS Daily Summary

Daily Weather History Graph

Daily Weather History Graph

Search for Another Location

Airport:

Trip Planner

Search our weather history database for the weather conditions in past years. The results will help you decide how hot, cold, wet, or windy it might be!

Date:

Astronomy

Dec. 25, 2013 Rise Set
Actual Time 7:30 AM CST 4:50 PM CST
Civil Twilight 7:00 AM CST 5:20 PM CST
Nautical Twilight 6:25 AM CST 5:55 PM CST
Astronomical Twilight 5:52 AM CST 6:28 PM CST
Moon No Moon Rise 11:54 AM CST (12/25)
Length of Visible Light 10h 20m
Length of Day
9h 19m
Waning Gibbous, 48% of the Moon is Illuminated
Dec 25
Waning Gibbous
Jan 1
New
Jan 7
First Quarter
Jan 15
Full
Jan 23
Last Quarter

Hourly Weather History & Observations

Time (CST) Temp. Windchill Dew Point Humidity Pressure Visibility Wind Dir Wind Speed Gust Speed Precip Events Conditions
12:34 AM 21.0 °F 11.4 °F 18.0 °F 88% 30.22 in 5.0 mi South 8.1 mph - N/A   Overcast
12:55 AM 21.0 °F 12.4 °F 18.0 °F 88% 30.28 in 6.0 mi SSW 6.9 mph - N/A   Overcast
1:55 AM 23.0 °F 15.8 °F 19.9 °F 88% 30.30 in 6.0 mi SW 5.8 mph - N/A   Overcast
2:55 AM 23.0 °F 15.8 °F 21.0 °F 92% 30.28 in 7.0 mi SSW 5.8 mph - N/A   Overcast
3:55 AM 24.1 °F 17.0 °F 21.9 °F 91% 30.28 in 6.0 mi SW 5.8 mph - N/A   Overcast
4:55 AM 25.0 °F 18.1 °F 23.0 °F 92% 30.29 in 4.0 mi SW 5.8 mph - N/A   Overcast
5:19 AM 25.0 °F 19.3 °F 23.0 °F 92% 30.22 in 2.5 mi SW 4.6 mph - N/A   Overcast
5:34 AM 25.0 °F 19.3 °F 23.0 °F 92% 30.23 in 2.5 mi WSW 4.6 mph - N/A   Overcast
5:55 AM 26.1 °F 21.9 °F 24.1 °F 92% 30.28 in 2.0 mi WSW 3.5 mph - N/A   Overcast
6:30 AM 26.1 °F 20.5 °F 24.1 °F 92% 30.23 in 1.5 mi West 4.6 mph - N/A   Overcast
6:53 AM 26.6 °F 20.0 °F 24.8 °F 93% 30.23 in 2.0 mi WNW 5.8 mph - N/A   Overcast
6:55 AM 26.1 °F 19.4 °F 24.1 °F 92% 30.29 in 2.0 mi West 5.8 mph - N/A   Overcast
7:12 AM 26.1 °F 16.2 °F 24.1 °F 92% 30.24 in 3.0 mi WNW 10.4 mph - N/A   Overcast
7:55 AM 26.1 °F 16.2 °F 24.1 °F 92% 30.30 in 3.0 mi West 10.4 mph - N/A   Overcast
8:55 AM 25.0 °F 18.1 °F 23.0 °F 92% 30.30 in 4.0 mi WSW 5.8 mph - N/A   Overcast
9:55 AM 25.0 °F 17.1 °F 21.9 °F 88% 30.32 in 5.0 mi WSW 6.9 mph - N/A   Overcast
10:55 AM 27.0 °F 16.1 °F 23.0 °F 85% 30.31 in 5.0 mi WSW 12.7 mph - N/A   Overcast
11:55 AM 27.0 °F 15.2 °F 23.0 °F 85% 30.27 in 5.0 mi SW 15.0 mph - N/A   Overcast
12:38 PM 28.9 °F 18.6 °F 24.1 °F 82% 30.21 in 6.0 mi WSW 12.7 mph 19.6 mph N/A   Haze
12:55 PM 28.9 °F 19.2 °F 24.1 °F 82% 30.25 in 6.0 mi West 11.5 mph - N/A   Haze
1:46 PM 30.0 °F 21.1 °F 24.1 °F 79% 30.20 in 6.0 mi WSW 10.4 mph - N/A   Haze
1:55 PM 30.9 °F 21.2 °F 24.1 °F 76% 30.24 in 6.0 mi WSW 12.7 mph - N/A   Haze
2:55 PM 33.1 °F 24.4 °F 25.0 °F 72% 30.24 in 9.0 mi West 11.5 mph 21.9 mph N/A   Scattered Clouds
3:41 PM 32.0 °F 23.6 °F 25.0 °F 75% 30.21 in 9.0 mi West 10.4 mph 21.9 mph N/A   Mostly Cloudy
3:55 PM 32.0 °F 24.8 °F 25.0 °F 75% 30.26 in 9.0 mi West 8.1 mph - N/A   Overcast
4:55 PM 32.0 °F 24.8 °F 25.0 °F 75% 30.27 in 10.0 mi West 8.1 mph - N/A   Overcast
5:36 PM 30.9 °F 24.3 °F 24.1 °F 76% 30.23 in 10.0 mi West 6.9 mph - N/A   Scattered Clouds
5:55 PM 30.9 °F 24.3 °F 24.1 °F 76% 30.28 in 10.0 mi West 6.9 mph - N/A   Mostly Cloudy
6:55 PM 32.0 °F 25.6 °F 25.0 °F 75% 30.30 in 10.0 mi West 6.9 mph - N/A   Overcast
7:55 PM 32.0 °F 25.6 °F 25.0 °F 75% 30.31 in 10.0 mi West 6.9 mph - N/A   Overcast
8:55 PM 32.0 °F 26.4 °F 25.0 °F 75% 30.32 in 10.0 mi West 5.8 mph - N/A   Overcast
9:55 PM 30.0 °F 22.4 °F 24.1 °F 79% 30.33 in 10.0 mi WNW 8.1 mph - N/A   Partly Cloudy
10:55 PM 27.0 °F 18.7 °F 21.0 °F 78% 30.33 in 10.0 mi West 8.1 mph - N/A   Clear
11:55 PM 26.1 °F 21.9 °F 17.1 °F 69% 30.33 in 10.0 mi West 3.5 mph - N/A   Clear